• In Uzbekistan
  • List of Countries
  • For 7 days
  • Water Temperature
  • Satellite Maps
  • Weather Map
  • Weather Widgets
  • user-avatar
    Login

    Hourly Weather La-Plata

    Today, 11 December, Monday

    Time Temperature Precipitation Wind Pressure Humidity
    00:00 +13°C° 0 mm 8 mps 759 mmHg 65%
    01:00 +12°C° 0 mm 7 mps 759 mmHg 71%
    02:00 +11°C° 0 mm 7 mps 760 mmHg 78%
    03:00 +10°C° 0 mm 6 mps 760 mmHg 80%
    04:00 +10°C° 0 mm 6 mps 760 mmHg 82%
    05:00 +9°C° 0 mm 6 mps 761 mmHg 84%
    06:00 +13°C° 0 mm 6 mps 761 mmHg 73%
    07:00 +15°C° 0 mm 6 mps 761 mmHg 62%
    08:00 +19°C° 0 mm 6 mps 762 mmHg 52%
    09:00 +20°C° 0 mm 6 mps 761 mmHg 46%
    10:00 +22°C° 0 mm 5 mps 761 mmHg 39%
    11:00 +25°C° 0 mm 5 mps 761 mmHg 33%
    12:00 +26°C° 0 mm 5 mps 761 mmHg 32%
    13:00 +26°C° 0 mm 5 mps 760 mmHg 31%
    14:00 +27°C° 0 mm 5 mps 760 mmHg 31%
    15:00 +26°C° 0 mm 6 mps 760 mmHg 32%
    16:00 +26°C° 0 mm 6 mps 760 mmHg 34%
    17:00 +24°C° 0 mm 6 mps 759 mmHg 36%
    18:00 +22°C° 0 mm 6 mps 760 mmHg 44%
    19:00 +20°C° 0 mm 6 mps 760 mmHg 51%
    20:00 +16°C° 0 mm 6 mps 760 mmHg 59%
    21:00 +16°C° 0 mm 6 mps 760 mmHg 62%
    22:00 +16°C° 0 mm 6 mps 761 mmHg 65%
    23:00 +16°C° 0 mm 6 mps 761 mmHg 69%

    Tomorrow, 12 December, Tuesday

    Time Temperature Precipitation Wind Pressure Humidity
    00:00 +16°C° 0 mm 6 mps 761 mmHg 70%
    01:00 +16°C° 0 mm 7 mps 760 mmHg 72%
    02:00 +16°C° 0 mm 7 mps 760 mmHg 74%
    03:00 +16°C° 0 mm 6 mps 760 mmHg 76%
    04:00 +16°C° 0 mm 6 mps 760 mmHg 78%
    05:00 +15°C° 0 mm 5 mps 760 mmHg 80%
    06:00 +17°C° 0 mm 5 mps 760 mmHg 71%
    07:00 +20°C° 0 mm 6 mps 761 mmHg 62%
    08:00 +22°C° 0 mm 6 mps 761 mmHg 54%
    09:00 +25°C° 0 mm 5 mps 760 mmHg 47%
    10:00 +27°C° 0 mm 5 mps 760 mmHg 40%
    11:00 +29°C° 0 mm 5 mps 759 mmHg 34%
    12:00 +30°C° 0 mm 4 mps 759 mmHg 31%
    13:00 +30°C° 0 mm 4 mps 758 mmHg 28%
    14:00 +32°C° 0 mm 4 mps 757 mmHg 25%
    15:00 +32°C° 0 mm 4 mps 757 mmHg 26%
    16:00 +32°C° 0 mm 4 mps 757 mmHg 26%
    17:00 +32°C° 0 mm 4 mps 756 mmHg 26%
    18:00 +28°C° 0 mm 4 mps 757 mmHg 35%
    19:00 +26°C° 0 mm 4 mps 757 mmHg 45%
    20:00 +23°C° 0 mm 5 mps 757 mmHg 54%
    21:00 +23°C° 0 mm 5 mps 757 mmHg 56%
    22:00 +22°C° 0 mm 5 mps 758 mmHg 58%
    23:00 +22°C° 0 mm 6 mps 758 mmHg 59%

    Day after tomorrow, 13 December, Wednesday

    Time Temperature Precipitation Wind Pressure Humidity
    00:00 +22°C° 0 mm 5 mps 757 mmHg 59%
    01:00 +22°C° 0 mm 5 mps 757 mmHg 59%
    02:00 +21°C° 0 mm 5 mps 757 mmHg 59%
    03:00 +21°C° 0 mm 5 mps 757 mmHg 61%
    04:00 +21°C° 0 mm 5 mps 757 mmHg 64%
    05:00 +20°C° 0 mm 5 mps 757 mmHg 66%
    06:00 +23°C° 0 mm 5 mps 757 mmHg 59%
    07:00 +26°C° 0 mm 4 mps 757 mmHg 53%
    08:00 +28°C° 0 mm 4 mps 757 mmHg 46%
    09:00 +30°C° 0 mm 4 mps 757 mmHg 40%
    10:00 +33°C° 0 mm 3 mps 757 mmHg 34%
    11:00 +35°C° 0 mm 3 mps 756 mmHg 28%
    12:00 +36°C° 0 mm 3 mps 756 mmHg 25%
    13:00 +37°C° 0 mm 3 mps 755 mmHg 22%
    14:00 +38°C° 0 mm 3 mps 754 mmHg 20%
    15:00 +37°C° 0 mm 4 mps 754 mmHg 21%
    16:00 +36°C° 0 mm 5 mps 754 mmHg 23%
    17:00 +36°C° 0 mm 6 mps 754 mmHg 25%
    18:00 +32°C° 0 mm 6 mps 755 mmHg 36%
    19:00 +28°C° 0 mm 7 mps 755 mmHg 48%
    20:00 +24°C° 0 mm 8 mps 756 mmHg 59%
    21:00 +23°C° 0 mm 6 mps 756 mmHg 66%
    22:00 +21°C° 0 mm 5 mps 757 mmHg 74%
    23:00 +20°C° 0 mm 3 mps 757 mmHg 81%

    14 December, Thursday

    Time Temperature Precipitation Wind Pressure Humidity
    00:00 +20°C° 0 mm 3 mps 757 mmHg 83%
    01:00 +19°C° 0 mm 4 mps 756 mmHg 85%
    02:00 +18°C° 0 mm 4 mps 756 mmHg 88%
    03:00 +18°C° 0 mm 4 mps 756 mmHg 88%
    04:00 +18°C° 0 mm 4 mps 757 mmHg 88%
    05:00 +18°C° 0 mm 4 mps 757 mmHg 88%
    06:00 +21°C° 0 mm 4 mps 757 mmHg 75%
    07:00 +23°C° 0 mm 4 mps 757 mmHg 62%
    08:00 +27°C° 0 mm 5 mps 758 mmHg 50%
    09:00 +30°C° 0 mm 5 mps 757 mmHg 40%
    10:00 +34°C° 0 mm 5 mps 757 mmHg 29%
    11:00 +37°C° 0 mm 5 mps 757 mmHg 19%
    12:00 +39°C° 0 mm 5 mps 756 mmHg 18%
    13:00 +40°C° 0 mm 6 mps 755 mmHg 16%
    14:00 +41°C° 0 mm 6 mps 754 mmHg 14%
    15:00 +41°C° 0 mm 6 mps 754 mmHg 13%
    16:00 +41°C° 0 mm 6 mps 754 mmHg 12%
    17:00 +40°C° 0 mm 6 mps 754 mmHg 12%
    18:00 +37°C° 0 mm 5 mps 754 mmHg 14%
    19:00 +34°C° 0 mm 5 mps 754 mmHg 17%
    20:00 +30°C° 0 mm 4 mps 755 mmHg 20%
    21:00 +29°C° 0 mm 4 mps 755 mmHg 23%
    22:00 +28°C° 0 mm 4 mps 756 mmHg 27%
    23:00 +26°C° 0 mm 4 mps 757 mmHg 30%

    15 December, Friday

    Time Temperature Precipitation Wind Pressure Humidity
    00:00 +25°C° 0 mm 3 mps 757 mmHg 38%
    01:00 +24°C° 0 mm 3 mps 757 mmHg 46%
    02:00 +24°C° 0 mm 2 mps 757 mmHg 53%
    03:00 +23°C° 0 mm 2 mps 757 mmHg 58%
    04:00 +23°C° 0 mm 2 mps 757 mmHg 62%
    05:00 +23°C° 0 mm 1 mps 757 mmHg 67%
    06:00 +26°C° 0 mm 2 mps 757 mmHg 57%
    07:00 +29°C° 0 mm 2 mps 758 mmHg 47%
    08:00 +32°C° 0 mm 2 mps 758 mmHg 37%
    09:00 +35°C° 0 mm 2 mps 757 mmHg 31%
    10:00 +36°C° 0 mm 3 mps 757 mmHg 26%
    11:00 +38°C° 0 mm 3 mps 757 mmHg 20%
    12:00 +40°C° 0 mm 4 mps 756 mmHg 19%
    13:00 +40°C° 0 mm 4 mps 755 mmHg 18%
    14:00 +41°C° 0 mm 5 mps 755 mmHg 17%
    15:00 +39°C° 0 mm 5 mps 754 mmHg 19%
    16:00 +38°C° 0 mm 6 mps 754 mmHg 21%
    17:00 +36°C° 0 mm 7 mps 753 mmHg 23%
    18:00 +34°C° 0 mm 6 mps 753 mmHg 30%
    19:00 +32°C° 0 mm 6 mps 753 mmHg 36%
    20:00 +30°C° 0 mm 6 mps 753 mmHg 43%
    21:00 +30°C° 0 mm 6 mps 753 mmHg 42%
    22:00 +30°C° 0 mm 7 mps 753 mmHg 41%
    23:00 +30°C° 0 mm 7 mps 753 mmHg 40%

    16 December, Saturday

    Time Temperature Precipitation Wind Pressure Humidity
    00:00 +30°C° 0 mm 7 mps 753 mmHg 40%
    01:00 +30°C° 0 mm 7 mps 752 mmHg 40%
    02:00 +31°C° 0 mm 8 mps 752 mmHg 40%
    03:00 +31°C° 0 mm 8 mps 752 mmHg 40%
    04:00 +31°C° 0 mm 8 mps 752 mmHg 40%
    05:00 +31°C° 0 mm 8 mps 752 mmHg 40%
    06:00 +33°C° 0 mm 8 mps 752 mmHg 36%
    07:00 +35°C° 0 mm 9 mps 752 mmHg 31%
    08:00 +38°C° 0 mm 9 mps 752 mmHg 26%
    09:00 +39°C° 0.1 mm 9 mps 752 mmHg 26%
    10:00 +42°C° 0.1 mm 9 mps 751 mmHg 25%
    11:00 +43°C° 0.1 mm 8 mps 751 mmHg 24%
    12:00 +44°C° 0.1 mm 9 mps 749 mmHg 23%
    13:00 +45°C° 0.1 mm 9 mps 748 mmHg 22%
    14:00 +47°C° 0.1 mm 10 mps 747 mmHg 21%
    15:00 +40°C° 13.5 mm 8 mps 747 mmHg 42%
    16:00 +34°C° 13.5 mm 7 mps 748 mmHg 63%
    17:00 +28°C° 13.5 mm 6 mps 748 mmHg 85%
    18:00 +27°C° 2.4 mm 5 mps 750 mmHg 83%
    19:00 +27°C° 2.4 mm 5 mps 751 mmHg 82%
    20:00 +27°C° 2.4 mm 5 mps 753 mmHg 80%
    21:00 +24°C° 0 mm 6 mps 754 mmHg 76%
    22:00 +22°C° 0 mm 7 mps 755 mmHg 72%
    23:00 +20°C° 0 mm 8 mps 756 mmHg 68%
    Show more